Location: Unspecified
(0.0000°N, 0.0000°E)
Time: 01:30:14
(UTC+00:00)

Explorer 11/Cluster Stage 4 - Pass Details

Date: 22 November 2019
Orbit: 467 x 1259 km, 28.8° (Epoch: 11 December)

Event Time Altitude Azimuth Distance (km) Brightness Sun altitude
Rises 15:38:08 0° 270° (W) 2,481 10.1 29.8°
Reaches altitude 10° 15:40:50 10° 292° (WNW) 1,624 9.0 29.2°
Maximum altitude 15:43:15 17° 333° (NNW) 1,305 7.9 28.6°
Drops below altitude 10° 15:45:49 10° 15° (NNE) 1,731 8.1 28.1°
Sets 15:48:51 0° 36° (NE) 2,732 8.9 27.4°
